| time (UTC) | temp F | wind direction | speed knots | gust knots | rain 1hr in | rain 24hr in | rain mn in | humidity % | barometer mb |
| 20260507002701 | 76 | 68 | 0.9 | 3.5 | 0.00 | 0.00 | 0.00 | 86 | 993.9 |
| 20260507001702 | 76 | 90 | 1.7 | 3.5 | 0.00 | 0.00 | 0.00 | 86 | 993.7 |
| 20260507001232 | 76 | 68 | 1.7 | 3.5 | 0.00 | 0.00 | 0.00 | 86 | 993.7 |
| 20260507000703 | 76 | 90 | 0.0 | 3.5 | 0.00 | 0.00 | 0.00 | 86 | 993.7 |
| 20260507000204 | 76 | 90 | 1.7 | 3.5 | 0.00 | 0.00 | 0.00 | 86 | 993.7 |
| 20260506235702 | 76 | 90 | 1.7 | 3.5 | 0.00 | 0.00 | 0.00 | 86 | 993.7 |
| 20260506235202 | 76 | 68 | 0.9 | 3.5 | 0.00 | 0.00 | 0.00 | 87 | 993.9 |
| 20260506234703 | 76 | 68 | 1.7 | 3.5 | 0.00 | 0.00 | 0.00 | 87 | 994.2 |
| 20260506234214 | 76 | 68 | 1.7 | 3.5 | 0.00 | 0.00 | 0.00 | 86 | 993.8 |
| 20260506233654 | 76 | 90 | 1.7 | 3.5 | 0.00 | 0.00 | 0.00 | 86 | 994.1 |
| 20260506232649 | 76 | 90 | 0.9 | 3.5 | 0.00 | 0.00 | 0.00 | 85 | 994.1 |
| 20260506232146 | 76 | 68 | 1.7 | 3.5 | 0.00 | 0.00 | 0.00 | 85 | 994.2 |
| 20260506231645 | 76 | 90 | 0.0 | 3.5 | 0.00 | 0.00 | 0.00 | 86 | 993.9 |
| 20260506231141 | 77 | 68 | 0.9 | 3.5 | 0.00 | 0.00 | 0.00 | 85 | 993.9 |
| 20260506230637 | 77 | 68 | 1.7 | 3.5 | 0.00 | 0.00 | 0.00 | 85 | 993.9 |
| 20260506230134 | 77 | 68 | 0.9 | 3.5 | 0.00 | 0.00 | 0.00 | 85 | 994.0 |
| 20260506225632 | 77 | 68 | 0.9 | 3.5 | 0.00 | 0.00 | 0.00 | 85 | 993.7 |
| 20260506225130 | 77 | 45 | 1.7 | 3.5 | 0.00 | 0.00 | 0.00 | 84 | 994.1 |
| 20260506224630 | 77 | 68 | 0.9 | 3.5 | 0.00 | 0.00 | 0.00 | 84 | 993.9 |
| 20260506224129 | 77 | 113 | 1.7 | 6.1 | 0.00 | 0.00 | 0.00 | 85 | 993.9 |
| 20260506223629 | 77 | 90 | 1.7 | 6.1 | 0.00 | 0.00 | 0.00 | 85 | 993.9 |
| 20260506223131 | 77 | 90 | 1.7 | 3.5 | 0.00 | 0.00 | 0.00 | 85 | 994.2 |
| 20260506222629 | 77 | 90 | 0.9 | 3.5 | 0.00 | 0.00 | 0.00 | 85 | 994.0 |
| 20260506222132 | 77 | 90 | 1.7 | 3.5 | 0.00 | 0.00 | 0.00 | 86 | 993.9 |
| 20260506221130 | 77 | 68 | 0.0 | 3.5 | 0.00 | 0.00 | 0.00 | 85 | 994.2 |
| 20260506220630 | 78 | 90 | 0.9 | 3.5 | 0.00 | 0.00 | 0.00 | 85 | 994.0 |
| 20260506220132 | 77 | 68 | 0.0 | 3.5 | 0.00 | 0.00 | 0.00 | 86 | 994.0 |
| 20260506215630 | 77 | 90 | 1.7 | 3.5 | 0.00 | 0.00 | 0.00 | 86 | 993.8 |
| 20260506215130 | 77 | 68 | 0.9 | 1.7 | 0.00 | 0.00 | 0.00 | 87 | 994.0 |
| 20260506213631 | 77 | 68 | 0.0 | 1.7 | 0.00 | 0.00 | 0.00 | 89 | 994.0 |
| 20260506213131 | 77 | 68 | 0.0 | 3.5 | 0.00 | 0.00 | 0.00 | 89 | 994.2 |
| 20260506212630 | 77 | 68 | 0.9 | 3.5 | 0.00 | 0.00 | 0.00 | 89 | 994.2 |
| 20260506212129 | 77 | 68 | 0.0 | 1.7 | 0.00 | 0.00 | 0.00 | 89 | 994.2 |
| 20260506211633 | 78 | 68 | 0.9 | 1.7 | 0.00 | 0.00 | 0.00 | 89 | 994.0 |
| 20260506211130 | 78 | 113 | 0.9 | 1.7 | 0.00 | 0.00 | 0.00 | 89 | 994.2 |
| 20260506210629 | 78 | 113 | 0.9 | 1.7 | 0.00 | 0.00 | 0.00 | 89 | 994.3 |
| 20260506210131 | 78 | 113 | 0.0 | 1.7 | 0.00 | 0.00 | 0.00 | 89 | 994.2 |
| 20260506205630 | 78 | 68 | 0.0 | 1.7 | 0.00 | 0.00 | 0.00 | 90 | 994.2 |
| 20260506205130 | 78 | 68 | 0.9 | 1.7 | 0.00 | 0.00 | 0.00 | 89 | 994.3 |
| 20260506204631 | 79 | 45 | 0.0 | 1.7 | 0.00 | 0.00 | 0.00 | 88 | 994.2 |
| 20260506204131 | 80 | 45 | 0.9 | 1.7 | 0.00 | 0.00 | 0.00 | 87 | 994.6 |
| 20260506203631 | 80 | 45 | 0.9 | 1.7 | 0.00 | 0.00 | 0.00 | 87 | 994.5 |
| 20260506203129 | 81 | 45 | 0.9 | 1.7 | 0.00 | 0.00 | 0.00 | 86 | 994.5 |
| 20260506202629 | 81 | 45 | 0.9 | 3.5 | 0.00 | 0.00 | 0.00 | 86 | 994.5 |
| 20260506202130 | 81 | 23 | 1.7 | 3.5 | 0.00 | 0.00 | 0.00 | 84 | 994.5 |
| 20260506200630 | 82 | 68 | 0.9 | 1.7 | 0.00 | 0.00 | 0.00 | 82 | 994.3 |
| 20260506200130 | 82 | 68 | 0.0 | 1.7 | 0.00 | 0.00 | 0.00 | 82 | 994.4 |
| 20260506195129 | 82 | 68 | 0.0 | 1.7 | 0.00 | 0.00 | 0.00 | 80 | 994.6 |
| 20260506194631 | 83 | 68 | 0.0 | 1.7 | 0.00 | 0.00 | 0.00 | 80 | 994.7 |
| 20260506194129 | 83 | 68 | 1.7 | 1.7 | 0.00 | 0.00 | 0.00 | 78 | 994.4 |
| 20260506193629 | 83 | 23 | 0.9 | 1.7 | 0.00 | 0.00 | 0.00 | 79 | 994.5 |
| 20260506193131 | 83 | 90 | 0.9 | 1.7 | 0.00 | 0.00 | 0.00 | 78 | 994.6 |
| 20260506192630 | 84 | 68 | 0.9 | 1.7 | 0.00 | 0.00 | 0.00 | 75 | 994.5 |
| 20260506192132 | 84 | 68 | 0.9 | 3.5 | 0.00 | 0.00 | 0.00 | 75 | 994.8 |
| 20260506191130 | 85 | 68 | 1.7 | 5.2 | 0.00 | 0.00 | 0.00 | 73 | 994.8 |
| 20260506190130 | 85 | 45 | 1.7 | 5.2 | 0.00 | 0.00 | 0.00 | 72 | 994.9 |
| 20260506185630 | 85 | 68 | 3.5 | 11.3 | 0.00 | 0.00 | 0.00 | 73 | 994.9 |
| 20260506184629 | 87 | 338 | 2.6 | 7.0 | 0.00 | 0.00 | 0.00 | 71 | 994.9 |
| 20260506184132 | 87 | 23 | 3.5 | 6.1 | 0.00 | 0.00 | 0.00 | 72 | 995.0 |
| 20260506181630 | 86 | 23 | 7.0 | 15.6 | 0.00 | 0.00 | 0.00 | 69 | 994.8 |
| 20260506181125 | 87 | 23 | 3.5 | 13.0 | 0.00 | 0.00 | 0.00 | 69 | 995.2 |
| 20260506180622 | 88 | 68 | 5.2 | 9.6 | 0.00 | 0.00 | 0.00 | 71 | 995.4 |
| 20260506180121 | 88 | 0 | 4.3 | 9.6 | 0.00 | 0.00 | 0.00 | 70 | 995.3 |
| 20260506175616 | 88 | 23 | 6.1 | 9.6 | 0.00 | 0.00 | 0.00 | 69 | 995.4 |
| 20260506174602 | 88 | 45 | 3.5 | 13.0 | 0.00 | 0.00 | 0.00 | 66 | 995.6 |
| 20260506174103 | 88 | 45 | 7.8 | 13.0 | 0.00 | 0.00 | 0.00 | 65 | 995.6 |
| 20260506172603 | 88 | 0 | 3.5 | 11.3 | 0.00 | 0.00 | 0.00 | 67 | 995.9 |
| 20260506172101 | 87 | 0 | 6.1 | 11.3 | 0.00 | 0.00 | 0.00 | 66 | 996.2 |
| 20260506171604 | 88 | 68 | 5.2 | 9.6 | 0.00 | 0.00 | 0.00 | 68 | 996.1 |
| 20260506171104 | 88 | 45 | 7.0 | 12.2 | 0.00 | 0.00 | 0.00 | 68 | 996.2 |
| 20260506165103 | 87 | 338 | 5.2 | 14.8 | 0.00 | 0.00 | 0.00 | 68 | 996.6 |
| 20260506164602 | 88 | 68 | 6.1 | 9.6 | 0.00 | 0.00 | 0.00 | 69 | 996.6 |
| 20260506164102 | 88 | 0 | 2.6 | 6.1 | 0.00 | 0.00 | 0.00 | 68 | 996.6 |
| 20260506163603 | 87 | 23 | 3.5 | 9.6 | 0.00 | 0.00 | 0.00 | 69 | 996.9 |
| 20260506163102 | 88 | 0 | 3.5 | 9.6 | 0.00 | 0.00 | 0.00 | 66 | 997.0 |
| 20260506162602 | 89 | 0 | 1.7 | 7.8 | 0.00 | 0.00 | 0.00 | 66 | 996.8 |
| 20260506162101 | 88 | 68 | 3.5 | 7.8 | 0.00 | 0.00 | 0.00 | 66 | 997.0 |
| 20260506161603 | 87 | 45 | 3.5 | 6.1 | 0.00 | 0.00 | 0.00 | 68 | 997.4 |
| 20260506161101 | 87 | 45 | 2.6 | 7.0 | 0.00 | 0.00 | 0.00 | 68 | 997.1 |
| 20260506160603 | 87 | 45 | 2.6 | 7.8 | 0.00 | 0.00 | 0.00 | 68 | 997.4 |
| 20260506155603 | 87 | 338 | 4.3 | 7.8 | 0.00 | 0.00 | 0.00 | 68 | 997.5 |
| 20260506154603 | 86 | 45 | 3.5 | 6.1 | 0.00 | 0.00 | 0.00 | 71 | 997.4 |
| 20260506154101 | 86 | 45 | 2.6 | 6.1 | 0.00 | 0.00 | 0.00 | 70 | 997.7 |
| 20260506153601 | 86 | 90 | 1.7 | 7.0 | 0.00 | 0.00 | 0.00 | 72 | 998.0 |
| 20260506153103 | 86 | 338 | 3.5 | 7.0 | 0.00 | 0.00 | 0.00 | 72 | 997.9 |
| 20260506152601 | 86 | 45 | 2.6 | 5.2 | 0.00 | 0.00 | 0.00 | 69 | 997.9 |
| 20260506152102 | 86 | 338 | 3.5 | 5.2 | 0.00 | 0.00 | 0.00 | 71 | 998.0 |
| 20260506151601 | 85 | 68 | 2.6 | 6.1 | 0.00 | 0.00 | 0.00 | 72 | 998.1 |
| 20260506151100 | 85 | 0 | 2.6 | 6.1 | 0.00 | 0.00 | 0.00 | 72 | 998.2 |
| 20260506150606 | 84 | 23 | 2.6 | 6.1 | 0.00 | 0.00 | 0.00 | 75 | 998.2 |
| 20260506145103 | 84 | 68 | 3.5 | 7.8 | 0.00 | 0.00 | 0.00 | 75 | 998.7 |
| 20260506144101 | 83 | 23 | 3.5 | 7.8 | 0.00 | 0.00 | 0.00 | 76 | 998.7 |
| 20260506143603 | 83 | 0 | 3.5 | 9.6 | 0.00 | 0.00 | 0.00 | 78 | 998.7 |
| 20260506142603 | 82 | 68 | 4.3 | 9.6 | 0.00 | 0.00 | 0.00 | 79 | 998.9 |
| 20260506142101 | 81 | 68 | 1.7 | 9.6 | 0.00 | 0.00 | 0.00 | 81 | 998.8 |
| 20260506141602 | 81 | 68 | 3.5 | 9.6 | 0.00 | 0.00 | 0.00 | 81 | 998.6 |
| 20260506141101 | 81 | 68 | 3.5 | 7.0 | 0.00 | 0.00 | 0.00 | 80 | 998.9 |
| 20260506140602 | 81 | 23 | 1.7 | 7.0 | 0.00 | 0.00 | 0.00 | 80 | 999.0 |
| 20260506140101 | 81 | 23 | 2.6 | 5.2 | 0.00 | 0.00 | 0.00 | 81 | 998.9 |
| 20260506135604 | 81 | 23 | 2.6 | 5.2 | 0.00 | 0.00 | 0.00 | 81 | 998.9 |
| 20260506134603 | 80 | 23 | 3.5 | 5.2 | 0.00 | 0.00 | 0.00 | 81 | 999.1 |
| 20260506134102 | 80 | 23 | 3.5 | 7.0 | 0.00 | 0.00 | 0.00 | 81 | 998.9 |
| 20260506133602 | 80 | 23 | 2.6 | 7.0 | 0.00 | 0.00 | 0.00 | 82 | 999.1 |
| 20260506132603 | 80 | 0 | 1.7 | 7.8 | 0.00 | 0.00 | 0.00 | 83 | 999.0 |
| 20260506132103 | 80 | 68 | 2.6 | 7.8 | 0.00 | 0.00 | 0.00 | 83 | 999.0 |
| 20260506131602 | 79 | 0 | 1.7 | 6.1 | 0.00 | 0.00 | 0.00 | 84 | 999.0 |
| 20260506131101 | 79 | 23 | 1.7 | 5.2 | 0.00 | 0.00 | 0.00 | 84 | 999.1 |
| 20260506130603 | 79 | 45 | 2.6 | 7.0 | 0.00 | 0.00 | 0.00 | 84 | 999.0 |
| 20260506125605 | 78 | 23 | 3.5 | 5.2 | 0.00 | 0.00 | 0.00 | 85 | 999.1 |
| 20260506125102 | 77 | 23 | 2.6 | 3.5 | 0.00 | 0.00 | 0.00 | 86 | 999.0 |
| 20260506124602 | 77 | 23 | 2.6 | 3.5 | 0.00 | 0.00 | 0.00 | 86 | 999.2 |
| 20260506124104 | 77 | 45 | 1.7 | 7.8 | 0.00 | 0.00 | 0.00 | 87 | 999.1 |
| 20260506123603 | 76 | 68 | 2.6 | 7.8 | 0.00 | 0.00 | 0.00 | 87 | 999.2 |
| 20260506123105 | 76 | 23 | 2.6 | 6.1 | 0.00 | 0.00 | 0.00 | 87 | 999.1 |
| 20260506122601 | 76 | 45 | 2.6 | 6.1 | 0.00 | 0.00 | 0.00 | 87 | 999.1 |
| 20260506122104 | 76 | 45 | 3.5 | 6.1 | 0.00 | 0.00 | 0.00 | 87 | 999.3 |
| 20260506121601 | 75 | 45 | 2.6 | 6.1 | 0.00 | 0.00 | 0.00 | 88 | 999.4 |
| 20260506121101 | 75 | 45 | 1.7 | 6.1 | 0.00 | 0.00 | 0.00 | 88 | 999.3 |
| 20260506120602 | 75 | 45 | 3.5 | 7.8 | 0.00 | 0.00 | 0.00 | 88 | 999.5 |
| 20260506120101 | 75 | 90 | 1.7 | 7.8 | 0.00 | 0.00 | 0.00 | 88 | 999.2 |
| 20260506115603 | 75 | 90 | 0.9 | 6.1 | 0.00 | 0.00 | 0.00 | 88 | 999.4 |
| 20260506115103 | 75 | 23 | 1.7 | 6.1 | 0.00 | 0.00 | 0.00 | 88 | 999.3 |
| 20260506114601 | 75 | 68 | 3.5 | 6.1 | 0.00 | 0.00 | 0.00 | 88 | 999.4 |
| 20260506113602 | 75 | 23 | 1.7 | 5.2 | 0.00 | 0.00 | 0.00 | 88 | 999.3 |
| 20260506112603 | 74 | 0 | 1.7 | 3.5 | 0.00 | 0.00 | 0.00 | 90 | 999.4 |
| 20260506112102 | 73 | 68 | 1.7 | 3.5 | 0.00 | 0.00 | 0.00 | 90 | 999.5 |
| 20260506111605 | 73 | 45 | 0.9 | 1.7 | 0.00 | 0.00 | 0.00 | 90 | 999.3 |
| 20260506111101 | 73 | 45 | 0.9 | 1.7 | 0.00 | 0.00 | 0.00 | 91 | 999.5 |
| 20260506110602 | 73 | 45 | 0.0 | 1.7 | 0.00 | 0.00 | 0.00 | 92 | 999.5 |
| 20260506105602 | 71 | 45 | 0.9 | 1.7 | 0.00 | 0.00 | 0.00 | 92 | 999.2 |
| 20260506105102 | 70 | 45 | 0.0 | 1.7 | 0.00 | 0.00 | 0.00 | 93 | 999.4 |
| 20260506104601 | 70 | 68 | 0.9 | 1.7 | 0.00 | 0.00 | 0.00 | 93 | 999.1 |
| 20260506104101 | 70 | 45 | 0.0 | 1.7 | 0.00 | 0.00 | 0.00 | 93 | 999.2 |
| 20260506103601 | 70 | 45 | 0.0 | 1.7 | 0.00 | 0.00 | 0.00 | 93 | 999.3 |
| 20260506103107 | 70 | 68 | 0.9 | 1.7 | 0.00 | 0.00 | 0.00 | 93 | 999.3 |
| 20260506102602 | 70 | 68 | 0.9 | 1.7 | 0.00 | 0.00 | 0.00 | 92 | 999.0 |
| 20260506102104 | 70 | 68 | 0.9 | 3.5 | 0.00 | 0.00 | 0.00 | 92 | 999.1 |
| 20260506101101 | 70 | 68 | 1.7 | 3.5 | 0.00 | 0.00 | 0.00 | 93 | 999.0 |
| 20260506100601 | 70 | 90 | 1.7 | 3.5 | 0.00 | 0.00 | 0.00 | 93 | 998.9 |
| 20260506100105 | 70 | 90 | 1.7 | 3.5 | 0.00 | 0.00 | 0.00 | 93 | 998.9 |
| 20260506095601 | 69 | 90 | 0.0 | 3.5 | 0.00 | 0.00 | 0.00 | 93 | 999.0 |
| 20260506095101 | 69 | 90 | 0.0 | 3.5 | 0.00 | 0.00 | 0.00 | 93 | 998.8 |
| 20260506094101 | 69 | 68 | 0.0 | 1.7 | 0.00 | 0.00 | 0.00 | 93 | 999.0 |
| 20260506093600 | 69 | 68 | 0.9 | 1.7 | 0.00 | 0.00 | 0.00 | 93 | 998.9 |
| 20260506093059 | 69 | 90 | 0.0 | 3.5 | 0.00 | 0.00 | 0.00 | 93 | 998.7 |
| 20260506092052 | 69 | 90 | 0.0 | 1.7 | 0.00 | 0.00 | 0.00 | 93 | 998.7 |
| 20260506091548 | 69 | 90 | 0.0 | 1.7 | 0.00 | 0.00 | 0.00 | 93 | 998.9 |
| 20260506091048 | 69 | 90 | 0.9 | 1.7 | 0.00 | 0.00 | 0.00 | 93 | 998.9 |
| 20260506090545 | 69 | 90 | 0.0 | 1.7 | 0.00 | 0.00 | 0.00 | 93 | 998.8 |
| 20260506085537 | 69 | 68 | 0.9 | 1.7 | 0.00 | 0.00 | 0.00 | 93 | 998.7 |
| 20260506085035 | 70 | 90 | 1.7 | 3.5 | 0.00 | 0.00 | 0.00 | 93 | 998.6 |
| 20260506084530 | 70 | 90 | 1.7 | 3.5 | 0.00 | 0.00 | 0.00 | 93 | 998.7 |
| 20260506084028 | 69 | 90 | 0.0 | 1.7 | 0.00 | 0.00 | 0.00 | 93 | 998.5 |
| 20260506083022 | 70 | 90 | 1.7 | 1.7 | 0.00 | 0.00 | 0.00 | 93 | 998.4 |
| 20260506082519 | 70 | 90 | 1.7 | 1.7 | 0.00 | 0.00 | 0.00 | 93 | 998.7 |
| 20260506082016 | 69 | 90 | 0.0 | 3.5 | 0.00 | 0.00 | 0.00 | 93 | 998.6 |
| 20260506081513 | 70 | 90 | 1.7 | 3.5 | 0.00 | 0.00 | 0.00 | 93 | 998.7 |
| 20260506081011 | 70 | 90 | 1.7 | 1.7 | 0.00 | 0.00 | 0.00 | 93 | 998.8 |
| 20260506080507 | 69 | 68 | 0.9 | 1.7 | 0.00 | 0.00 | 0.00 | 93 | 998.7 |
| 20260506073002 | 70 | 90 | 1.7 | 1.7 | 0.00 | 0.00 | 0.00 | 93 | 998.7 |
| 20260506072002 | 71 | 90 | 1.7 | 1.7 | 0.00 | 0.00 | 0.00 | 93 | 998.7 |
| 20260506071503 | 71 | 90 | 1.7 | 1.7 | 0.00 | 0.00 | 0.00 | 93 | 998.8 |
| 20260506071002 | 71 | 90 | 1.7 | 1.7 | 0.00 | 0.00 | 0.00 | 93 | 998.8 |
| 20260506070501 | 71 | 90 | 1.7 | 1.7 | 0.00 | 0.00 | 0.00 | 93 | 998.6 |
| 20260506062502 | 71 | 68 | 0.0 | 1.7 | 0.00 | 0.00 | 0.00 | 93 | 998.7 |
| 20260506062003 | 71 | 90 | 1.7 | 1.7 | 0.00 | 0.00 | 0.00 | 93 | 998.5 |
| 20260506061501 | 71 | 90 | 1.7 | 1.7 | 0.00 | 0.00 | 0.00 | 93 | 998.3 |
| 20260506061000 | 71 | 90 | 1.7 | 3.5 | 0.00 | 0.00 | 0.00 | 93 | 998.4 |
| 20260506060457 | 71 | 68 | 1.7 | 3.5 | 0.00 | 0.00 | 0.00 | 93 | 998.4 |
| 20260506050924 | 71 | 90 | 0.0 | 0.0 | 0.00 | 0.00 | 0.00 | 93 | 998.5 |
| 20260506050421 | 71 | 90 | 0.0 | 1.7 | 0.00 | 0.00 | 0.00 | 93 | 998.4 |
| 20260506044912 | 71 | 90 | 1.7 | 1.7 | 0.00 | 0.00 | 0.00 | 93 | 998.4 |
| 20260506043902 | 70 | 90 | 0.0 | 1.7 | 0.00 | 0.00 | 0.00 | 93 | 998.4 |
| 20260506042906 | 71 | 90 | 0.0 | 1.7 | 0.00 | 0.00 | 0.00 | 93 | 998.5 |
| 20260506041901 | 71 | 90 | 0.9 | 1.7 | 0.00 | 0.00 | 0.00 | 93 | 998.3 |
| 20260506041401 | 71 | 90 | 1.7 | 1.7 | 0.00 | 0.00 | 0.00 | 93 | 998.6 |
| 20260506040902 | 70 | 90 | 0.0 | 1.7 | 0.00 | 0.00 | 0.00 | 93 | 998.2 |
| 20260506040403 | 71 | 90 | 0.0 | 1.7 | 0.00 | 0.00 | 0.00 | 94 | 998.3 |
| 20260506035902 | 70 | 90 | 1.7 | 1.7 | 0.00 | 0.00 | 0.00 | 94 | 998.5 |
| 20260506035402 | 70 | 68 | 0.0 | 1.7 | 0.00 | 0.00 | 0.00 | 94 | 998.6 |
| 20260506034901 | 70 | 68 | 0.0 | 1.7 | 0.00 | 0.00 | 0.00 | 94 | 998.5 |
| 20260506034403 | 70 | 68 | 0.9 | 1.7 | 0.00 | 0.00 | 0.00 | 94 | 998.5 |
| 20260506033905 | 70 | 68 | 0.9 | 1.7 | 0.00 | 0.00 | 0.00 | 94 | 998.4 |
| 20260506033401 | 70 | 68 | 1.7 | 1.7 | 0.00 | 0.00 | 0.00 | 94 | 998.4 |
| 20260506032901 | 70 | 23 | 0.0 | 3.5 | 0.00 | 0.00 | 0.00 | 94 | 998.5 |
| 20260506032402 | 70 | 45 | 0.0 | 3.5 | 0.00 | 0.00 | 0.00 | 94 | 998.6 |
| 20260506031901 | 70 | 68 | 0.0 | 1.7 | 0.00 | 0.00 | 0.00 | 94 | 998.6 |
| 20260506030903 | 70 | 68 | 0.0 | 1.7 | 0.00 | 0.00 | 0.00 | 94 | 998.9 |
| 20260506030402 | 70 | 68 | 0.0 | 1.7 | 0.00 | 0.00 | 0.00 | 94 | 998.9 |
| 20260506025901 | 70 | 68 | 0.0 | 1.7 | 0.00 | 0.00 | 0.00 | 94 | 998.9 |
| 20260506025406 | 70 | 68 | 0.0 | 1.7 | 0.00 | 0.00 | 0.00 | 94 | 998.8 |
| 20260506024902 | 70 | 68 | 0.0 | 1.7 | 0.00 | 0.00 | 0.00 | 94 | 998.7 |
| 20260506024403 | 70 | 68 | 0.0 | 0.0 | 0.00 | 0.00 | 0.00 | 93 | 998.9 |
| 20260506023901 | 70 | 68 | 0.0 | 0.0 | 0.00 | 0.00 | 0.00 | 93 | 999.0 |
| 20260506023402 | 70 | 68 | 0.0 | 0.0 | 0.00 | 0.00 | 0.00 | 93 | 998.8 |
| 20260506022904 | 70 | 68 | 0.0 | 0.0 | 0.00 | 0.00 | 0.00 | 93 | 998.7 |
| 20260506022404 | 70 | 68 | 0.0 | 1.7 | 0.00 | 0.00 | 0.00 | 93 | 998.8 |
| 20260506021857 | 70 | 68 | 0.0 | 1.7 | 0.00 | 0.00 | 0.00 | 93 | 998.7 |
| 20260506021355 | 70 | 68 | 0.0 | 0.0 | 0.00 | 0.00 | 0.00 | 93 | 998.8 |
| 20260506020852 | 70 | 68 | 0.0 | 1.7 | 0.00 | 0.00 | 0.00 | 93 | 998.6 |
| 20260506020351 | 71 | 68 | 0.0 | 1.7 | 0.00 | 0.00 | 0.00 | 93 | 998.7 |
| 20260506015847 | 71 | 68 | 0.0 | 1.7 | 0.00 | 0.00 | 0.00 | 93 | 998.9 |
| 20260506015359 | 71 | 68 | 0.0 | 1.7 | 0.00 | 0.00 | 0.00 | 93 | 998.9 |
| 20260506014840 | 71 | 68 | 0.0 | 1.7 | 0.00 | 0.00 | 0.00 | 93 | 998.8 |
| 20260506014336 | 71 | 68 | 0.0 | 1.7 | 0.00 | 0.00 | 0.00 | 93 | 998.7 |
| 20260506013834 | 71 | 68 | 0.0 | 1.7 | 0.00 | 0.00 | 0.00 | 93 | 998.7 |
| 20260506012834 | 71 | 68 | 0.0 | 1.7 | 0.00 | 0.00 | 0.00 | 93 | 998.4 |
| 20260506011829 | 72 | 68 | 0.0 | 1.7 | 0.00 | 0.00 | 0.00 | 92 | 998.8 |
| 20260506011331 | 72 | 68 | 0.0 | 1.7 | 0.00 | 0.00 | 0.00 | 92 | 998.8 |
| 20260506010330 | 73 | 68 | 0.0 | 1.7 | 0.00 | 0.00 | 0.00 | 91 | 998.7 |
| 20260506005830 | 73 | 68 | 0.9 | 3.5 | 0.00 | 0.00 | 0.00 | 90 | 998.7 |
| 20260506004830 | 74 | 68 | 1.7 | 3.5 | 0.00 | 0.00 | 0.00 | 89 | 998.6 |
| 20260506004329 | 74 | 90 | 1.7 | 3.5 | 0.00 | 0.00 | 0.00 | 90 | 998.5 |
| 20260506003831 | 74 | 113 | 0.9 | 3.5 | 0.00 | 0.00 | 0.00 | 90 | 998.3 |
| 20260506003329 | 74 | 90 | 0.9 | 1.7 | 0.00 | 0.00 | 0.00 | 90 | 998.5 |